Airfield :
LOGIN :

Register | Disclaimer

   EN    FR    IT 

 










Legend :    VFR   Marginal VFR   IFR   Intensive IFR   Very Intensive IFR
Visi :
Ceiling :
>= 8 km
>= 3000ft
5 to 8 km
1000 to 3000 ft
1500m to 5 km
500 to 1000 ft
800 to 1500m
200 to 500 ft
< 800m
< 200 ft
Symbols :   Thunderstorms  Fog  Heavy snow  Heavy precipitations  Wind > 20 kt
SIGMETs :     Misc.  Thunderstorms  Icing  Turbulence  Mountain Waves  Volcanic Ashes







- Airport Elevation : 1234 ft
- IATA code : LUX


ELLX - Luxembourg Findel

CURRENT METAR :
  • 172050Z AUTO 06012KT 9999 NCD 04/M02 Q1025 NOSIG

EXPIRED METARs :
  • 172020Z 06012KT CAVOK 04/M02 Q1025 NOSIG
  • 171950Z 07011KT CAVOK 04/M02 Q1025 NOSIG
  • 171920Z 07009KT CAVOK 04/M02 Q1025 NOSIG
  • 171850Z 06013KT CAVOK 05/M02 Q1026 NOSIG
  • 171820Z 05012KT CAVOK 06/M02 Q1026 NOSIG

TAF TAF ELLX
Valid from the 17 at 18:00 until the 19 at 00:00 UTC


171700Z 1718/1824 06012G22KT CAVOK
ATIS : +352 4798 27300
Met : +352 4798 27010 / 27050
No reported NOTAMs for that airfield.



MET'MAP, your aeronautical weather chart ! - Copyright ORBIFLY December 2007 - Disclaimer

ORBIFLY MET'MAP TEAM :

Programming & Development : Alexandra Zaïnal
Concept & Development : Baudouin d'Aumeries
Co-Development & Prog : Marc-Olivier Méhu
Technical & hardware support : Manuel Goepfert

Contact : metmap@orbifly.com




SOURCES & CREDITS :

   NOAA